{"data":{"norad_id":64853,"epoch":"2026-09-20T13:48:54.796608Z","epoch_age_seconds":117658,"freshness":"FRESH","line1":"1 64853U 25152M   26263.57563422  .00003142  00000+0  99628-4 0  9991","line2":"2 64853  97.2852 114.1015 0002101  88.4740 271.6744 15.33440534 64833","mean_motion":15.33440534,"eccentricity":0.0002101,"inclination_deg":97.2852,"raan_deg":114.1015,"arg_perigee_deg":88.474,"mean_anomaly_deg":271.6744,"bstar":9.9628e-5,"rev_number":6483,"period_min":93.906478149742,"perigee_km":464.11860218788,"apogee_km":466.99432218069,"semimajor_km":6843.6934621843,"source":"CELESTRAK","updated_at":"2026-09-21T09:00:35.450625Z"}}